STARLETTE 1 07646U 75010A 10210.78109383 -.00000186 +00000-0 -33652-4 0 03500 2 07646 049.8275 322.2619 0205562 339.2005 020.0616 13.82273008792060 LAGEOS 1 1 08820U 76039A 10210.84089936 +.00000005 +00000-0 +10000-3 0 09869 2 08820 109.8561 352.0520 0044101 104.7329 255.8050 06.38664768543071 EGS (AJISAI) 1 16908U 86061A 10210.85922146 -.00000083 +00000-0 +10000-3 0 03211 2 16908 050.0118 345.5416 0011622 173.8456 186.2523 12.44464238758369 LAGEOS 2 1 22195U 92070B 10210.92768844 -.00000009 +00000-0 +10000-3 0 02075 2 22195 052.6784 333.1776 0138677 170.9317 189.3786 06.47293804420060 STELLA 1 22824U 93061B 10210.75273789 -.00000177 +00000-0 -54899-4 0 06318 2 22824 098.5221 152.9430 0006328 178.0731 182.0473 14.27287628877326 WESTPAC 1 25398U 98043E 10210.89427546 +.00000014 +00000-0 +24334-4 0 08747 2 25398 098.3175 214.6441 0002223 095.5444 264.5978 14.22683195625986 GRACE 1 1 27391U 02012A 10210.79033327 .00000910 00000-0 25886-4 0 5512 2 27391 089.0161 308.5690 0014714 332.2599 027.7907 15.34829876467811 GRACE 2 1 27392U 02012B 10210.78998841 +.00001062 +00000-0 +30349-4 0 05523 2 27392 089.0151 308.5880 0015748 333.7684 026.2819 15.34831591467814 GOCE 1 34602U 09013A 10211.58399350 .00038641 25685-5 53052-4 0 2620 2 34602 096.6308 225.5063 0007966 099.0894 261.1241 16.06335147 80156